Content
SEND FEEDBACK

Daily
Averages
Monthly
Summary
United States of America

ALPINE MEADOWS, CALIFORNIA


Home > North America > United States > California
Elevation: 6230 feet     Latitude: 39 12N     Longitude: 120 14W

WEATHER
 
SELECT A DAY
Number of Records: 290,231;   Date Range: 1/1/95 - 12/16/14
 
SHARE

PRINT THIS DATA

[ ← Previous Day ]
WEATHER ALMANAC - NOVEMBER 8, 2013
[ Next Day → ]
[ °C ]   °F
Weather ElementAverageHighLow
Temperature35.5 °F59 °F (11:45 am)24.8 °F (4:55 am)
Dewpoint22.3 °F26.6 °F (6:55 pm)15.8 °F (12:55 am)
Humidity62.7 %86 % (11:35 pm)23 % (12:55 pm)
Barometer30.16 in30.22 in (12:35 am)30.10 in (2:45 pm)
Wind Speed2.5 mph13.8 mph (2:45 pm)
Wind Gust19.6 mph (3:50 pm)
Weather ElementAverage
Visibility10 mi
Wind DirectionENE (74.1 °)

Weather ElementTotal
Precipitation---
Heating Degree Days23.1 (Base 65)
Averaged from 49 records on November 8, 2013
WEATHER CONDITIONS BREAKOUT
WIND DIRECTION BREAKOUT
WEATHER BY HOUR - NOVEMBER 8, 2013
[ °C ]   °F
Local TimeTemperatureDewpointHumidityBarometerVisibilityWind DirectionWind SpeedGust SpeedPrecipitationEventsConditions
12:35 AM28.4 °F17.6 °F64 %30.22 in10.0 miCalmClear
12:55 AM32.0 °F15.8 °F51 %30.22 in10.0 miWest (260°)3.5 mphClear
1:15 AM28.4 °F17.6 °F64 %30.22 in10.0 miSSE (150°)3.5 mphClear
1:35 AM32.0 °F17.6 °F55 %30.21 in10.0 miCalmClear
1:55 AM30.2 °F17.6 °F60 %30.21 in10.0 miCalmClear
2:15 AM26.6 °F17.6 °F69 %30.21 in10.0 miCalmClear
2:35 AM26.6 °F17.6 °F69 %30.21 in10.0 miSSW (210°)3.5 mphClear
2:55 AM30.2 °F21.2 °F69 %30.20 in10.0 miSouth (170°)3.5 mphClear
3:15 AM28.4 °F19.4 °F69 %30.20 in10.0 miCalmClear
3:35 AM26.6 °F19.4 °F74 %30.20 in10.0 miSSE (150°)3.5 mphClear
3:55 AM28.4 °F23.0 °F80 %30.19 in10.0 miCalmClear
4:15 AM28.4 °F21.2 °F74 %30.19 in10.0 miCalmClear
4:35 AM28.4 °F19.4 °F69 %30.20 in10.0 miCalmClear
4:55 AM24.8 °F19.4 °F80 %30.20 in10.0 miCalmClear
5:15 AM26.6 °F21.2 °F80 %30.19 in10.0 miSSE (160°)4.6 mphClear
5:35 AM28.4 °F23.0 °F80 %30.19 in10.0 miCalmClear
6:45 AM24.8 °F19.4 °F80 %30.19 in10.0 miCalmPartly Cloudy
7:45 AM28.4 °F23.0 °F80 %30.20 in10.0 miCalmClear
8:45 AM37.4 °F24.8 °F60 %30.20 in10.0 miCalmClear
9:50 AM48.2 °F24.8 °F40 %30.19 in10.0 miCalmClear
10:50 AM55.4 °F24.8 °F31 %30.18 in10.0 miSSW (200°)10.4 mphClear
11:45 AM59.0 °F23.0 °F25 %30.15 in10.0 miSouth (170°)12.7 mph18.4 mphClear
12:55 PM59.0 °F21.2 °F23 %30.12 in10.0 miSW (220°)12.7 mphClear
1:45 PM59.0 °F23.0 °F25 %30.11 in10.0 miSW (220°)11.5 mph17.3 mphClear
2:45 PM57.2 °F24.8 °F29 %30.10 in10.0 miSSW (200°)13.8 mph18.4 mphClear
3:50 PM55.4 °F24.8 °F31 %30.10 in10.0 miSW (220°)11.5 mph19.6 mphClear
4:45 PM50.0 °F24.8 °F37 %30.10 in10.0 miWSW (250°)4.6 mphClear
4:55 PM48.2 °F24.8 °F40 %30.10 in10.0 miWSW (250°)4.6 mphClear
5:15 PM48.2 °F24.8 °F40 %30.11 in10.0 miCalmClear
5:35 PM44.6 °F24.8 °F46 %30.11 in10.0 miSSW (200°)3.5 mphClear
5:55 PM39.2 °F23.0 °F52 %30.11 in10.0 miSouth (180°)3.5 mphClear
6:15 PM37.4 °F24.8 °F60 %30.12 in10.0 miSSE (150°)6.9 mphClear
6:35 PM37.4 °F24.8 °F60 %30.12 in10.0 miCalmClear
6:55 PM37.4 °F26.6 °F65 %30.13 in10.0 miCalmClear
7:15 PM35.6 °F24.8 °F65 %30.13 in10.0 miCalmClear
7:35 PM35.6 °F24.8 °F65 %30.13 in10.0 miCalmClear
7:55 PM33.8 °F24.8 °F70 %30.13 in10.0 miCalmClear
8:15 PM32.0 °F24.8 °F75 %30.13 in10.0 miESE (110°)3.5 mphClear
8:35 PM32.0 °F23.0 °F69 %30.13 in10.0 miCalmClear
8:55 PM32.0 °F23.0 °F69 %30.14 in10.0 miCalmClear
9:15 PM28.4 °F23.0 °F80 %30.15 in10.0 miCalmClear
9:35 PM30.2 °F23.0 °F75 %30.15 in10.0 miSSE (160°)3.5 mphClear
9:55 PM30.2 °F24.8 °F80 %30.15 in10.0 miCalmClear
10:15 PM28.4 °F23.0 °F80 %30.16 in10.0 miCalmClear
10:35 PM28.4 °F23.0 °F80 %30.16 in10.0 miCalmClear
10:55 PM28.4 °F23.0 °F80 %30.15 in10.0 miCalmClear
11:15 PM28.4 °F23.0 °F80 %30.15 in10.0 miCalmClear
11:35 PM26.6 °F23.0 °F86 %30.15 in10.0 miCalmClear
11:55 PM26.6 °F23.0 °F86 %30.15 in10.0 miCalmClear
Hourly data recorded from KTRK, located miles away from Alpine Meadows, California







STORIES FROM OUR PARTNERS